AirNav   BOSE A20 Aviation Headset
 
 867 users online  

7N4 Honey Acres Airport
Clinton, Michigan, USA

GOING TO CLINTON?


FAA INFORMATION EFFECTIVE 24 MAY 2018

Location

FAA Identifier: 7N4
Lat/Long: 42-04-40.1510N / 083-59-09.7950W
42-04.669183N / 083-59.163250W
42.0778197 / -83.9860542
(estimated)
Elevation: 820 ft. / 250 m (estimated)
Variation: 04W (1985)
From city: 1 mile W of CLINTON, MI
Time zone: UTC -4 (UTC -5 during Standard Time)
Zip code: 49236

Airport Operations

Airport use: Open to the public
Activation date: 07/1990
Control tower: no
ARTCC: CLEVELAND CENTER
FSS: LANSING FLIGHT SERVICE STATION
NOTAMs facility: LAN (NOTAM-D service available)
Attendance: IREG
Wind indicator: yes
Segmented circle: no

Airport Communications

CTAF: 122.9
WX ASOS at ADG (13 nm S): 118.375 (517-265-9089)
WX ASOS at ARB (14 nm NE): PHONE 734-668-7173

Nearby radio navigation aids

VOR radial/distance  VOR name  Freq  Var
CRLr277/23.6CARLETON VOR/DME115.7003W
JXNr122/23.7JACKSON VOR/DME109.6005W
SVMr224/26.4SALEM VORTAC114.3003W
DXOr260/28.7DETROIT VOR/DME113.4006W
LFDr093/34.7LITCHFIELD VOR/DME111.2005W

 
NDB name  Hdg/Dist  Freq  Var  ID
TECUMSEH307/5.223906WTCU - -.-. ..-
ADRIAN024/13.127806WADG .- -.. --.
GROSSE ILE275/37.141907WRYS .-. -.-- ...

Airport Services

Parking: tiedowns

Runway Information

Runway 18/36

Dimensions: 3800 x 90 ft. / 1158 x 27 m
Surface: turf, in good condition
Runway edge markings: RY 18/36 THLDS & DSPLCD THLDS MKD WITH 3 FT YELLOW CONES.
RUNWAY 18  RUNWAY 36
Latitude: 42-04.978333N42-04.353333N
Longitude: 083-59.173333W083-59.148333W
Traffic pattern: leftleft
Displaced threshold: 600 ft.600 ft.
Obstructions: 40 ft. trees, 106 ft. left of centerline32 ft. bldg, lighted, 129 ft. from runway, 55 ft. left of centerline, 4:1 slope to clear
APCH RATIO 8:1 AT DSPLCD THLD OVER 80 FT TREE, 714 FT DSTC, 125 L.

Airport Ownership and Management from official FAA records

Ownership: Privately-owned
Owner: RAYMOND L. KUSSMAUL
12447 MATTHEWS HWY
CLINTON, MI 49236
Phone 517-902-3270
Manager: RAYMOND L. KUSSMAUL
12447 MATTHEWS HWY
CLINTON, MI 49236
Phone 517-902-3270

Airport Operational Statistics

Aircraft based on the field: 4
Single engine airplanes: 4
    
Aircraft operations: avg 38/month *
50% transient general aviation
50% local general aviation
* for 12-month period ending 31 December 2014

Additional Remarks

BUILDING & HGR IN PRIMARY SFC.
RWY 36, +18 FT PLINE 430 FT FROM THLD MARKED WITH ORANGE BALLS.
RY SOFT DURG SPRING THAW AND AFT HEAVY RAINS.
FOR CD CTC DETROIT APCH AT 800-499-8181.

Instrument Procedures

There are no published instrument procedures at 7N4.

Some nearby airports with instrument procedures:

3TE - Al Meyers Airport (4 nm SE)
KADG - Lenawee County Airport (13 nm S)
KARB - Ann Arbor Municipal Airport (14 nm NE)
KYIP - Willow Run Airport (22 nm NE)
KJXN - Jackson County Airport-Reynolds Field (24 nm NW)
 
Loc | Ops | Rwys | IFR | FBO | Links
Com | Nav | Svcs | Stats | Notes

AirNav Hotels Sweepstakes
 
Area around 7N4 (Honey Acres Airport)
 
Road maps at: MapQuest Bing Google
 
Aerial photo
WARNING: Photo may not be current or correct
Aerial photo of 7N4 (Honey Acres Airport)
Credit: M. Coleman - LocalHangar.com

Do you have a better or more recent aerial photo of Honey Acres Airport that you would like to share? If so, please send us your photo.

 
Sectional chart

 
Airport distance calculator
Flying to Honey Acres Airport? Find the distance to fly.

From to 7N4

Sunrise and sunset
Times for 26-May-2018
 Local
(UTC-4)
 Zulu
(UTC)
Morning civil twilight05:3409:34
Sunrise06:0710:07
Sunset20:5900:59
Evening civil twilight21:3201:32

Current date and time
Zulu (UTC)  26-May-2018 21:23:42
Local (UTC-4)  26-May-2018 17:23:42
 
METAR
KADG 
13nm S 
262053Z AUTO 35006KT 10SM -RA BKN110 24/18 A2978 RMK AO2 RAB45 SLP082 P0000 60000 T02390183 56009 TSNO
KARB 
14nm NE 
734-668-7173
262053Z 16008KT 10SM CLR 26/22 A2978 RMK AO2 SLP079 T02610217 58008
KYIP 
22nm NE 
262053Z 15008KT 10SM CLR 27/19 A2979 RMK AO2 SLP079 T02670194 58010
KJXN 
24nm NW 
262056Z 16006KT 10SM FEW095 27/19 A2977 RMK AO2 SLP073 T02720194 56009
KDUH 
26nm SE 
262055Z AUTO 08007G17KT 2SM -RA SCT008 BKN042 OVC055 22/20 A2979 RMK AO2 T02230195
TAF
KYIP 
22nm NE 
262004Z 2620/2718 15009KT P6SM BKN080 TEMPO 2620/2622 VRB30KT 5SM -TSRA BKN030CB OVC080 FM270100 VRB04KT P6SM SCT150 FM270800 VRB03KT 5SM BR SCT250 FM271300 16005KT P6SM SCT250
KJXN 
24nm NW 
261747Z 2618/2718 22008KT P6SM VCTS BKN050CB FM270100 32004KT P6SM BKN250 FM270900 VRB03KT 5SM BR SCT250 FM271300 21005KT P6SM SCT250 FM271700 24008KT P6SM VCSH SCT250
NOTAMs
Click for the latest NOTAMs
NOTAMs are issued by the DoD/FAA and will open in a separate window not controlled by AirNav.

 

 
 

Where to Eat: Catering, Restaurants, Food shops

  
 Business Name 
 
 Contact 
 
 Services / Description 
 
Distance
 
Comments
  
Race Track Inn 517-456-7768
no information available

If you are affiliated with Race Track Inn and would like to show here your services, contact info, web link, logo, and more, click here
0.2 miles  
   write
McDonald's 517-456-8700
no information available

If you are affiliated with McDonald's and would like to show here your services, contact info, web link, logo, and more, click here
0.4 miles  
   write
 

Would you like to see your business listed on this page?

 If your business provides an interesting product or service to pilots, flight crews, aircraft, or users of the Honey Acres Airport, you should consider listing it here.  To start the listing process, click on the button below
 
Add a business
 

Other Pages about Honey Acres Airport

Page from the Michigan Airport Directory (PDF)
 
Update a link
 
Copyright © AirNav, LLC. All rights reserved. Privacy Policy  Contact